TimeEDT,TemperatureF,Dew PointF,Humidity,Sea Level PressureIn,VisibilityMPH,Wind Direction,Wind SpeedMPH,Gust SpeedMPH,PrecipitationIn,Events,Conditions,WindDirDegrees,DateUTC
12:54 AM,64.0,54.0,70,30.36,10.0,ENE,3.5,-,N/A,,Clear,70,2012-09-13 04:54:00
1:54 AM,59.0,54.0,83,30.35,10.0,Calm,Calm,-,N/A,,Clear,0,2012-09-13 05:54:00
2:54 AM,57.0,53.1,87,30.36,10.0,West,3.5,-,N/A,,Clear,280,2012-09-13 06:54:00
3:54 AM,55.9,52.0,87,30.35,10.0,Calm,Calm,-,N/A,,Clear,0,2012-09-13 07:54:00
4:54 AM,55.0,52.0,89,30.35,10.0,Calm,Calm,-,N/A,,Clear,0,2012-09-13 08:54:00
5:54 AM,53.1,51.1,93,30.37,10.0,Calm,Calm,-,N/A,,Clear,0,2012-09-13 09:54:00
6:54 AM,53.1,50.0,89,30.39,10.0,Calm,Calm,-,N/A,,Clear,0,2012-09-13 10:54:00
7:54 AM,54.0,51.1,90,30.40,10.0,Calm,Calm,-,N/A,,Clear,0,2012-09-13 11:54:00
8:54 AM,60.1,53.1,78,30.40,10.0,Calm,Calm,-,N/A,,Clear,0,2012-09-13 12:54:00
9:54 AM,64.9,54.0,68,30.40,10.0,Calm,Calm,-,N/A,,Clear,0,2012-09-13 13:54:00
10:54 AM,68.0,54.0,61,30.40,10.0,Calm,Calm,-,N/A,,Partly Cloudy,0,2012-09-13 14:54:00
11:54 AM,73.0,53.1,49,30.39,10.0,Calm,Calm,-,N/A,,Partly Cloudy,0,2012-09-13 15:54:00
12:54 PM,75.9,51.1,42,30.36,10.0,Variable,4.6,-,N/A,,Clear,0,2012-09-13 16:54:00
1:54 PM,75.9,48.0,37,30.34,10.0,Calm,Calm,-,N/A,,Clear,0,2012-09-13 17:54:00
2:54 PM,79.0,46.0,31,30.31,10.0,East,6.9,-,N/A,,Clear,90,2012-09-13 18:54:00
3:54 PM,80.1,48.0,32,30.29,10.0,ESE,8.1,-,N/A,,Clear,110,2012-09-13 19:54:00
4:54 PM,79.0,44.1,29,30.29,10.0,SSE,6.9,-,N/A,,Clear,150,2012-09-13 20:54:00
5:54 PM,75.9,46.0,35,30.28,10.0,SSE,6.9,-,N/A,,Clear,150,2012-09-13 21:54:00
6:54 PM,73.0,48.9,42,30.29,10.0,SSE,4.6,-,N/A,,Clear,160,2012-09-13 22:54:00
7:54 PM,72.0,48.9,44,30.29,10.0,Calm,Calm,-,N/A,,Clear,0,2012-09-13 23:54:00
8:54 PM,64.0,53.1,67,30.31,10.0,Calm,Calm,-,N/A,,Clear,0,2012-09-14 00:54:00
9:54 PM,64.9,52.0,63,30.31,10.0,Calm,Calm,-,N/A,,Clear,0,2012-09-14 01:54:00
10:54 PM,63.0,51.1,65,30.32,10.0,Calm,Calm,-,N/A,,Clear,0,2012-09-14 02:54:00
11:54 PM,57.9,52.0,81,30.32,10.0,Calm,Calm,-,N/A,,Clear,0,2012-09-14 03:54:00